sat.trackr.live / text

‹ back to catalog

STARLINK-33617

NORAD 63373 · 2025-063L

PAYLOAD ACTIVE UNKNOWN

§ Identity

Operator
Country
US
Launch date
2025-03-26
Launch site
AFWTR
Launch vehicle
Mass (kg)
RCS (m²)

Purposes: comms

External: N2YO · Heavens-Above · Gunter

§ Orbital elements

Epoch: 2026-05-25T03:46:37.208640Z

Period
94.10 min
Inclination
53.1589°
Eccentricity
0.0001119
Mean motion
15.30213216 rev/d
Perigee alt
474.4 km
Apogee alt
475.9 km
Semi-major
6,853.3 km
B*
6.4872e-4
RAAN
54.6710°
Arg perigee
81.0809°
Mean anomaly
279.0319°
Rev number
6,645

§ Raw data

STARLINK-336171 63373U 25063L   26145.15737510  .00018911  00000+0  64872-3 0  99942 63373  53.1589  54.6710 0001119  81.0809 279.0319 15.30213216 66452

JSON: /api/v1/satellites/63373 · /tle

For live sub-satellite position, see the globe view (requires WebGL).

§ Visibility from observer

Set your observer location to see the next 7 days of passes ≥ 10°. The values pass through the URL so the page stays shareable.

No JS? Fill the form by hand. The geolocation button needs JavaScript.